LX0WX-13 Weather Reports


Display with metric or nautical units.
time (UTC)temp
F
wind
direction
speed
MPH
gust
MPH
rain 1hr
in
rain 24hr
in
rain mn
in
humidity
%
barometer
mb
20260506215048 42 337 8.0 10.0 0.00 0.22 0.00 92 1006.0
20260506214548 42 337 5.0 8.0 0.00 0.22 0.00 92 1005.8
20260506214048 42 337 6.0 10.0 0.00 0.22 0.00 92 1005.7
20260506213548 42 0 5.0 9.0 0.00 0.22 0.00 91 1005.8
20260506213048 42 0 9.0 10.0 0.00 0.22 0.00 91 1005.6
20260506212548 42 0 7.0 12.0 0.00 0.22 0.00 91 1005.5
20260506212048 42 315 7.0 10.0 0.00 0.22 0.00 91 1005.5
20260506211548 42 337 10.0 12.0 0.00 0.22 0.00 91 1005.3
20260506211048 42 0 10.0 11.0 0.00 0.22 0.00 91 1005.3
20260506210548 42 337 10.0 13.0 0.00 0.26 0.00 91 1005.4
20260506210048 42 337 15.0 15.0 0.00 0.26 0.00 91 1005.4
20260506205548 42 337 12.0 13.0 0.00 0.26 0.00 91 1005.6
20260506205048 42 0 12.0 16.0 0.00 0.26 0.00 91 1005.4
20260506204548 42 0 11.0 15.0 0.00 0.26 0.00 91 1005.5
20260506204048 42 0 12.0 14.0 0.00 0.26 0.00 91 1005.5
20260506203548 43 337 14.0 14.0 0.00 0.26 0.00 90 1005.4
20260506203048 43 0 9.0 9.0 0.00 0.26 0.00 90 1005.5
20260506202548 43 0 8.0 8.0 0.00 0.26 0.00 90 1005.6
20260506202048 43 0 6.0 8.0 0.00 0.26 0.00 90 1005.6
20260506201548 43 0 6.0 10.0 0.00 0.26 0.00 90 1005.5
20260506201048 43 337 10.0 11.0 0.00 0.26 0.00 90 1005.4
20260506200548 43 0 7.0 10.0 0.00 0.26 0.00 90 1005.3
20260506200048 43 22 9.0 12.0 0.00 0.26 0.00 90 1005.3
20260506195548 43 337 6.0 9.0 0.00 0.26 0.00 89 1005.3
20260506195048 43 0 7.0 11.0 0.00 0.26 0.00 90 1005.2
20260506194548 43 0 10.0 11.0 0.00 0.26 0.00 89 1005.1
20260506194048 43 0 9.0 12.0 0.00 0.26 0.00 89 1005.0
20260506193548 43 0 6.0 12.0 0.00 0.26 0.00 89 1005.0
20260506193048 43 337 9.0 12.0 0.00 0.26 0.00 89 1004.9
20260506192548 43 337 8.0 11.0 0.00 0.26 0.00 89 1004.9
20260506192048 43 337 6.0 10.0 0.00 0.26 0.00 89 1004.8
20260506191548 43 0 5.0 9.0 0.00 0.26 0.00 88 1004.9
20260506191048 43 0 5.0 12.0 0.00 0.26 0.00 88 1004.6
20260506190548 44 0 9.0 13.0 0.00 0.30 0.00 88 1004.5
20260506190048 44 337 8.0 12.0 0.00 0.30 0.00 88 1004.4
20260506185548 44 337 7.0 12.0 0.00 0.30 0.00 88 1004.3
20260506185048 44 337 11.0 12.0 0.00 0.30 0.00 87 1004.2
20260506184548 44 337 9.0 15.0 0.00 0.30 0.00 87 1004.2
20260506184048 44 0 7.0 18.0 0.00 0.30 0.00 87 1004.1
20260506183548 44 337 9.0 14.0 0.00 0.30 0.00 87 1004.1
20260506183048 44 0 14.0 15.0 0.00 0.30 0.00 87 1004.0
20260506182548 44 0 9.0 15.0 0.00 0.30 0.00 86 1003.9
20260506182048 44 337 13.0 14.0 0.00 0.30 0.00 86 1004.0
20260506181548 44 337 9.0 15.0 0.00 0.30 0.00 86 1003.8
20260506181048 45 337 15.0 15.0 0.00 0.30 0.00 86 1004.0
20260506180548 45 0 9.0 16.0 0.00 0.30 0.00 85 1003.9
20260506180048 45 0 11.0 13.0 0.00 0.30 0.00 85 1004.1
20260506175548 45 0 11.0 14.0 0.00 0.30 0.00 85 1004.0
20260506175048 45 0 8.0 13.0 0.00 0.30 0.00 85 1003.9
20260506174548 45 0 11.0 15.0 0.00 0.30 0.00 85 1003.9
20260506174048 45 0 14.0 14.0 0.00 0.30 0.00 85 1003.8
20260506173548 46 0 8.0 13.0 0.00 0.30 0.00 85 1003.9
20260506173048 46 337 13.0 14.0 0.00 0.30 0.00 84 1003.8
20260506172548 46 337 10.0 12.0 0.00 0.30 0.00 84 1003.8
20260506172048 46 337 12.0 13.0 0.00 0.30 0.00 84 1004.0
20260506171548 46 337 12.0 12.0 0.00 0.30 0.00 84 1003.9
20260506171049 46 337 10.0 12.0 0.00 0.30 0.00 84 1003.9
20260506170549 47 337 11.0 12.0 0.00 0.32 0.00 84 1003.9
20260506170049 47 0 8.0 10.0 0.00 0.32 0.00 82 1003.9
20260506165549 47 0 9.0 14.0 0.00 0.32 0.00 82 1003.9
20260506165049 47 337 12.0 13.0 0.00 0.32 0.00 81 1003.8
20260506164549 47 337 11.0 13.0 0.00 0.32 0.00 80 1003.7
20260506164049 47 0 13.0 17.0 0.00 0.32 0.00 80 1003.8
20260506163549 48 0 8.0 16.0 0.00 0.32 0.00 80 1003.7
20260506163049 48 337 10.0 15.0 0.00 0.32 0.00 81 1003.6
20260506162549 48 0 7.0 14.0 0.00 0.32 0.00 80 1003.7
20260506162049 48 0 10.0 13.0 0.00 0.32 0.00 81 1003.6
20260506161549 49 337 10.0 16.0 0.00 0.32 0.00 80 1003.7
20260506161049 48 337 11.0 13.0 0.00 0.32 0.00 81 1003.7
20260506160549 49 0 13.0 15.0 0.00 0.34 0.00 82 1003.5
20260506160049 49 0 11.0 17.0 0.00 0.34 0.00 81 1003.7
20260506155549 49 337 17.0 17.0 0.00 0.34 0.00 82 1003.6
20260506155049 49 0 11.0 16.0 0.00 0.34 0.00 82 1003.5
20260506154549 49 337 13.0 13.0 0.00 0.34 0.00 82 1003.5
20260506154049 49 337 10.0 14.0 0.00 0.34 0.00 83 1003.3
20260506153549 49 0 13.0 17.0 0.00 0.34 0.00 83 1003.3
20260506153049 49 337 7.0 16.0 0.00 0.34 0.00 84 1003.4
20260506152549 49 337 13.0 16.0 0.00 0.34 0.00 85 1003.4
20260506152050 48 337 14.0 14.0 0.00 0.34 0.00 86 1003.3
20260506151549 47 337 11.0 16.0 0.00 0.34 0.00 85 1003.3
20260506151049 47 337 8.0 18.0 0.00 0.34 0.00 85 1003.4
20260506150549 48 315 9.0 12.0 0.00 0.36 0.00 85 1003.3
20260506150049 48 337 8.0 11.0 0.00 0.36 0.00 84 1003.3
20260506145549 48 337 9.0 14.0 0.00 0.36 0.00 85 1003.3
20260506145049 48 0 9.0 16.0 0.00 0.36 0.00 85 1003.4
20260506144549 48 337 16.0 16.0 0.00 0.36 0.00 85 1003.3
20260506144049 49 0 11.0 15.0 0.00 0.36 0.00 84 1003.2
20260506143549 49 0 10.0 14.0 0.00 0.36 0.00 84 1003.3
20260506143049 49 337 11.0 12.0 0.00 0.36 0.00 85 1003.3
20260506142549 49 0 11.0 14.0 0.00 0.36 0.00 86 1003.3
20260506142049 49 337 9.0 17.0 0.00 0.36 0.00 87 1003.4
20260506141549 48 22 10.0 13.0 0.00 0.36 0.00 89 1003.3
20260506141049 47 0 8.0 11.0 0.00 0.36 0.00 89 1003.3
20260506140549 47 0 6.0 14.0 0.00 0.40 0.00 89 1003.3
20260506140049 47 337 13.0 16.0 0.00 0.40 0.00 90 1003.2
20260506135549 47 337 11.0 15.0 0.00 0.40 0.00 90 1003.3
20260506135049 48 337 13.0 13.0 0.00 0.40 0.00 90 1003.3
20260506134549 48 337 7.0 11.0 0.00 0.40 0.00 90 1003.2
20260506134049 48 337 8.0 15.0 0.00 0.40 0.00 90 1003.2
20260506133549 48 337 10.0 11.0 0.00 0.40 0.00 90 1003.2
20260506133049 47 337 8.0 12.0 0.00 0.40 0.00 90 1003.2
20260506132549 47 0 8.0 13.0 0.00 0.40 0.00 89 1003.0
20260506132049 47 0 10.0 14.0 0.00 0.40 0.00 89 1003.1
20260506131549 48 337 8.0 12.0 0.00 0.40 0.00 89 1003.1
20260506131049 48 337 6.0 14.0 0.00 0.40 0.00 89 1003.2
20260506130549 48 315 7.0 14.0 0.00 0.55 0.00 90 1003.2
20260506130049 48 337 5.0 12.0 0.00 0.55 0.00 90 1003.1
20260506125549 48 337 8.0 12.0 0.00 0.55 0.00 90 1002.8
20260506125049 47 337 8.0 10.0 0.00 0.55 0.00 90 1002.9
20260506124549 47 337 8.0 10.0 0.00 0.55 0.00 90 1002.9
20260506124049 47 337 7.0 11.0 0.00 0.55 0.00 89 1002.9
20260506123549 48 337 7.0 10.0 0.00 0.55 0.00 89 1002.9
20260506123049 48 0 5.0 11.0 0.00 0.55 0.00 89 1002.6
20260506122549 49 0 6.0 12.0 0.00 0.55 0.00 90 1002.7
20260506122049 48 0 5.0 10.0 0.00 0.55 0.00 90 1002.6
20260506121549 48 337 8.0 13.0 0.00 0.55 0.00 90 1002.6
20260506121049 48 0 5.0 12.0 0.00 0.55 0.00 89 1002.5
20260506120549 48 0 6.0 8.0 0.00 0.59 0.00 89 1002.6
20260506120049 48 0 8.0 10.0 0.00 0.59 0.00 89 1002.5
20260506115549 48 0 7.0 10.0 0.00 0.59 0.00 89 1002.5
20260506115049 48 0 8.0 9.0 0.00 0.59 0.00 88 1002.5
20260506114549 48 0 7.0 12.0 0.00 0.59 0.00 89 1002.4
20260506114049 48 337 9.0 12.0 0.00 0.59 0.00 89 1002.4
20260506113549 48 337 6.0 11.0 0.00 0.59 0.00 89 1002.4
20260506113049 48 337 9.0 10.0 0.00 0.59 0.00 88 1002.3
20260506112549 48 337 7.0 11.0 0.00 0.59 0.00 88 1002.4
20260506112049 48 337 10.0 12.0 0.00 0.59 0.00 87 1002.5
20260506111549 48 337 10.0 12.0 0.00 0.59 0.00 87 1002.5
20260506111049 49 337 9.0 11.0 0.00 0.59 0.00 86 1002.4
20260506110549 49 0 6.0 11.0 0.00 0.59 0.00 86 1002.3
20260506110049 49 0 9.0 11.0 0.00 0.59 0.00 86 1002.4
20260506105549 49 337 8.0 14.0 0.00 0.59 0.00 86 1002.2
20260506105049 49 337 12.0 13.0 0.00 0.59 0.00 87 1002.2
20260506104549 49 337 10.0 11.0 0.00 0.59 0.00 87 1002.0
20260506104049 49 337 12.0 13.0 0.00 0.59 0.00 87 1002.2
20260506103549 49 337 12.0 16.0 0.00 0.59 0.00 87 1002.2
20260506103049 49 337 10.0 13.0 0.00 0.59 0.00 88 1002.0
20260506102549 49 0 8.0 11.0 0.00 0.59 0.00 87 1002.0
20260506102051 49 0 7.0 12.0 0.00 0.59 0.00 87 1002.1
20260506101549 49 337 11.0 13.0 0.00 0.59 0.00 87 1002.0
20260506101049 49 337 9.0 12.0 0.00 0.59 0.00 87 1002.1
20260506100549 49 0 9.0 12.0 0.00 0.59 0.00 87 1002.2
20260506100050 49 337 9.0 11.0 0.00 0.59 0.00 87 1002.1
20260506095550 49 337 9.0 14.0 0.00 0.59 0.00 87 1002.1
20260506095050 49 337 9.0 14.0 0.00 0.59 0.00 87 1002.0
20260506094550 50 337 12.0 16.0 0.00 0.59 0.00 87 1001.8
20260506094050 50 0 9.0 12.0 0.00 0.59 0.00 87 1001.7
20260506093550 50 337 11.0 14.0 0.00 0.59 0.00 88 1001.8
20260506093051 51 0 11.0 14.0 0.00 0.59 0.00 89 1001.7
20260506092550 51 337 12.0 14.0 0.00 0.59 0.00 90 1001.7
20260506092050 51 337 8.0 13.0 0.00 0.59 0.00 91 1001.6
20260506091550 50 0 10.0 15.0 0.00 0.59 0.00 93 1001.6
20260506091050 50 0 8.0 10.0 0.00 0.59 0.00 93 1001.7
20260506090550 50 0 6.0 11.0 0.00 0.59 0.00 93 1001.7
20260506090050 50 0 8.0 12.0 0.00 0.59 0.00 93 1001.5
20260506085550 49 337 7.0 13.0 0.00 0.59 0.00 93 1001.6
20260506085050 48 0 10.0 13.0 0.00 0.59 0.00 96 1001.6
20260506084550 48 337 8.0 13.0 0.00 0.59 0.00 96 1001.4
20260506084050 48 337 8.0 13.0 0.00 0.59 0.00 96 1001.5
20260506083550 48 337 8.0 10.0 0.00 0.59 0.00 96 1001.6
20260506083050 48 0 10.0 12.0 0.00 0.59 0.00 96 1001.6
20260506082550 48 337 8.0 11.0 0.00 0.59 0.00 96 1001.4
20260506082050 48 0 10.0 10.0 0.00 0.59 0.00 96 1001.4
20260506081550 48 337 7.0 11.0 0.00 0.59 0.00 96 1001.4
20260506081050 48 337 8.0 8.0 0.00 0.59 0.00 96 1001.5
20260506080550 48 0 5.0 9.0 0.00 0.59 0.00 96 1001.4
20260506073050 49 0 11.0 11.0 0.02 0.59 0.00 96 1001.2
20260506072550 49 337 10.0 12.0 0.02 0.59 0.00 96 1001.3
20260506072050 48 337 8.0 12.0 0.02 0.59 0.00 96 1001.1
20260506071550 48 0 10.0 14.0 0.02 0.59 0.00 96 1001.1
20260506071050 48 0 8.0 13.0 0.02 0.59 0.00 96 1001.2
20260506070550 48 337 10.0 14.0 0.02 0.59 0.00 96 1001.2
20260506062050 47 0 9.0 9.0 0.02 0.57 0.00 96 1001.1
20260506061550 47 337 7.0 9.0 0.02 0.57 0.00 96 1001.1
20260506061050 46 0 5.0 9.0 0.02 0.57 0.00 96 1000.9
20260506060550 46 0 7.0 11.0 0.02 0.57 0.00 96 1001.0
20260506051050 47 337 6.0 9.0 0.00 0.55 0.00 96 1000.8
20260506050550 47 337 6.0 10.0 0.00 0.55 0.00 96 1000.7
20260506045050 47 337 5.0 7.0 0.00 0.55 0.00 96 1000.8
20260506044550 47 337 4.0 6.0 0.00 0.55 0.00 96 1000.8
20260506044050 47 0 3.0 5.0 0.00 0.55 0.00 96 1000.8
20260506043550 47 337 2.0 4.0 0.00 0.55 0.00 96 1000.9
20260506043050 47 337 3.0 6.0 0.00 0.55 0.00 96 1000.9
20260506042550 48 337 2.0 7.0 0.00 0.55 0.00 96 1000.8
20260506042050 48 337 7.0 7.0 0.00 0.55 0.00 96 1000.8
20260506041550 48 337 4.0 6.0 0.00 0.55 0.00 96 1000.7
20260506041050 48 337 2.0 2.0 0.02 0.55 0.00 96 1000.7
20260506040550 48 0 0.0 2.0 0.02 0.55 0.00 96 1000.7
20260506040050 48 0 0.0 3.0 0.02 0.55 0.00 96 1000.7
20260506035550 48 270 0.0 0.0 0.02 0.55 0.00 96 1000.8
20260506035050 49 270 0.0 0.0 0.02 0.55 0.00 96 1000.8
20260506034550 49 270 0.0 0.0 0.02 0.55 0.00 96 1000.8
20260506034050 49 270 0.0 0.0 0.02 0.55 0.00 96 1000.9
20260506033550 49 292 0.0 2.0 0.02 0.55 0.00 96 1000.9
20260506033050 50 202 2.0 2.0 0.02 0.55 0.00 96 1000.8
20260506032550 50 45 0.0 2.0 0.02 0.55 0.00 96 1000.8
20260506032050 50 157 1.0 2.0 0.02 0.55 0.00 96 1000.9
20260506031550 50 0 0.0 4.0 0.02 0.55 0.00 96 1000.8
20260506031050 50 315 0.0 2.0 0.00 0.52 0.00 96 1000.7
20260506030550 50 202 0.0 0.0 0.00 0.52 0.00 96 1000.8
20260506030051 50 247 0.0 0.0 0.00 0.52 0.00 96 1000.8
20260506025550 50 270 0.0 2.0 0.00 0.52 0.00 96 1000.8
20260506025051 50 315 0.0 4.0 0.00 0.52 0.00 96 1000.8
20260506024551 50 315 0.0 5.0 0.00 0.52 0.00 96 1000.8
20260506024051 50 180 0.0 2.0 0.00 0.52 0.00 96 1000.8
20260506023551 50 202 0.0 6.0 0.00 0.52 0.00 96 1000.8
20260506023051 50 247 0.0 6.0 0.00 0.52 0.00 96 1001.0
20260506022551 50 180 0.0 2.0 0.00 0.52 0.00 96 1001.1
20260506022051 50 202 0.0 4.0 0.00 0.52 0.00 96 1001.0
20260506021551 50 180 1.0 5.0 0.00 0.52 0.00 96 1001.0
20260506021051 50 157 2.0 5.0 0.02 0.52 0.00 96 1001.0
20260506020551 50 157 0.0 4.0 0.02 0.52 0.00 96 1001.1
20260506020235 50 180 0.0 2.0 0.04 0.52 0.00 96 1001.2
20260506020051 50 180 0.0 2.0 0.04 0.52 0.00 96 1001.2
20260506015551 50 180 0.0 2.0 0.04 0.52 0.00 96 1001.2
20260506015051 50 157 0.0 6.0 0.04 0.52 0.00 96 1001.2
20260506014551 50 337 0.0 3.0 0.04 0.52 0.00 96 1001.2
20260506014051 50 180 0.0 5.0 0.04 0.52 0.00 96 1001.2
20260506013551 50 180 0.0 4.0 0.04 0.52 0.00 96 1001.2
20260506013051 50 225 0.0 5.0 0.04 0.52 0.00 96 1001.3
20260506012551 50 315 0.0 3.0 0.04 0.52 0.00 96 1001.4
20260506012051 50 180 0.0 3.0 0.04 0.52 0.00 96 1001.4
20260506011551 50 180 0.0 4.0 0.04 0.50 0.00 96 1001.4
20260506011051 50 247 0.0 5.0 0.06 0.50 0.00 96 1001.5
20260506010551 50 202 1.0 1.0 0.12 0.50 0.00 96 1001.5
20260506010051 50 315 0.0 0.0 0.10 0.48 0.00 96 1001.6
20260506005551 50 315 0.0 0.0 0.12 0.48 0.00 96 1001.4
20260506005051 50 315 0.0 0.0 0.12 0.48 0.00 96 1001.6
20260506004551 50 315 0.0 0.0 0.12 0.48 0.00 96 1001.7
20260506004051 50 315 0.0 0.0 0.12 0.48 0.00 96 1001.7
20260506003551 50 315 0.0 0.0 0.12 0.48 0.00 96 1001.8
20260506003051 50 315 0.0 0.0 0.12 0.48 0.00 96 1001.9
20260506002551 50 315 0.0 0.0 0.12 0.48 0.00 96 1001.9
20260506002051 50 315 0.0 0.0 0.12 0.48 0.00 96 1002.0
20260506001551 50 315 0.0 2.0 0.08 0.44 0.00 96 1002.0
20260506001051 50 292 0.0 6.0 0.06 0.42 0.00 96 1002.1
20260506000551 50 157 5.0 5.0 0.02 0.38 0.00 96 1001.9
20260506000051 50 180 0.0 6.0 0.00 0.36 0.00 96 1002.0
20260505235551 50 202 3.0 5.0 0.00 0.36 0.00 96 1002.1
20260505235051 50 180 4.0 7.0 0.00 0.36 0.00 96 1002.1
20260505234551 50 180 6.0 6.0 0.00 0.36 0.00 96 1002.1
20260505234051 50 135 4.0 5.0 0.00 0.36 0.00 96 1002.3
20260505233551 50 180 0.0 3.0 0.00 0.36 0.00 96 1002.4
20260505233051 50 135 1.0 5.0 0.00 0.36 0.00 96 1002.5
20260505232551 50 135 3.0 6.0 0.00 0.36 0.00 96 1002.5
20260505232051 50 135 2.0 5.0 0.00 0.36 0.00 96 1002.4
20260505231551 50 180 1.0 4.0 0.00 0.36 0.00 96 1002.4
20260505231051 50 180 0.0 5.0 0.00 0.36 0.00 96 1002.5
20260505230551 50 135 2.0 3.0 0.00 0.36 0.00 96 1002.4
20260505230051 50 135 2.0 2.0 0.00 0.36 0.00 96 1002.6
20260505225551 50 112 2.0 2.0 0.00 0.36 0.00 96 1002.7
20260505225051 50 112 0.0 1.0 0.02 0.36 0.00 96 1002.7
20260505224551 50 112 0.0 2.0 0.02 0.36 0.00 96 1002.8
20260505224051 50 45 0.0 0.0 0.02 0.36 0.00 96 1002.7
20260505223551 50 45 0.0 0.0 0.02 0.36 0.00 96 1002.8
20260505223052 50 45 0.0 0.0 0.02 0.36 0.00 94 1002.8
20260505222551 50 45 0.0 0.0 0.04 0.36 0.00 94 1002.8
20260505222051 50 45 0.0 0.0 0.04 0.36 0.00 94 1002.8
20260505221551 50 45 0.0 0.0 0.04 0.36 0.00 94 1002.9
20260505221051 50 45 0.0 0.0 0.04 0.36 0.00 94 1002.9
20260505220551 50 45 0.0 0.0 0.04 0.36 0.00 94 1002.9
20260505220051 50 45 0.0 0.0 0.04 0.36 0.00 94 1003.0
20260505215551 50 45 0.0 0.0 0.02 0.34 0.00 94 1003.0